Weather History for Punta Gorda, FL

Change the Weather History Date:

Thursday, November 22, 2012

  Actual Average Record
Temperature  
Mean Temperature 62 °F -  
Max Temperature 77 °F 77 °F 86 °F (1998)
Min Temperature 48 °F 55 °F 39 °F (2000)
Degree Days  
Heating Degree Days 2    
Growing Degree Days 12 (Base 50)    
Moisture  
Dew Point 42 °F    
Average Humidity 57    
Maximum Humidity 93    
Minimum Humidity 21    
Precipitation  
Precipitation 0.00 in - - ()
Sea Level Pressure  
Sea Level Pressure 30.14 in    
Wind  
Wind Speed 8 mph (NNE)    
Max Wind Speed 20 mph    
Max Gust Speed 24 mph    
Visibility 10 miles    
Events      
Averages and records for this station are not official NWS values.
T = Trace of Precipitation, MM = Missing Value Source: NWS Daily Summary

Daily Weather History Graph

Daily Weather History Graph

Search for Another Location

Airport:

Trip Planner

Search our weather history database for the weather conditions in past years. The results will help you decide how hot, cold, wet, or windy it might be!

Date:

Astronomy

Nov. 22, 2012 Rise Set
Actual Time 6:53 AM EST 5:34 PM EST
Civil Twilight 6:28 AM EST 5:59 PM EST
Nautical Twilight 6:00 AM EST 6:28 PM EST
Astronomical Twilight 5:32 AM EST 6:56 PM EST
Moon 1:55 PM EST (11/22) 1:39 AM EST (11/22)
Length of Visible Light 11h 31m
Length of Day
10h 41m
Waxing Gibbous, 71% of the Moon is Illuminated
Nov 22
Waxing Gibbous
Nov 28
Full
Dec 6
Last Quarter
Dec 13
New
Dec 20
First Quarter

Hourly Weather History & Observations

Time (EST) Temp. Dew Point Humidity Pressure Visibility Wind Dir Wind Speed Gust Speed Precip Events Conditions
12:53 AM 53.1 °F 51.1 °F 93% 30.12 in 10.0 mi North 4.6 mph - N/A   Clear
1:53 AM 52.0 °F 48.9 °F 89% 30.11 in 10.0 mi Calm Calm - N/A   Clear
2:53 AM 54.0 °F 50.0 °F 86% 30.10 in 10.0 mi North 5.8 mph - N/A   Clear
3:53 AM 54.0 °F 48.9 °F 83% 30.10 in 10.0 mi North 6.9 mph - N/A   Clear
4:53 AM 53.1 °F 48.0 °F 83% 30.10 in 10.0 mi North 8.1 mph - N/A   Clear
5:53 AM 53.1 °F 46.9 °F 80% 30.11 in 10.0 mi North 6.9 mph - N/A   Clear
6:53 AM 53.1 °F 46.9 °F 80% 30.13 in 10.0 mi North 6.9 mph - N/A   Clear
7:53 AM 55.9 °F 48.0 °F 75% 30.15 in 10.0 mi North 5.8 mph - N/A   Clear
8:53 AM 61.0 °F 48.0 °F 62% 30.17 in 10.0 mi North 9.2 mph - N/A   Clear
9:53 AM 66.0 °F 46.0 °F 48% 30.17 in 10.0 mi NNE 13.8 mph - N/A   Clear
10:53 AM 71.1 °F 41.0 °F 34% 30.16 in 10.0 mi NNE 13.8 mph - N/A   Clear
11:53 AM 73.0 °F 37.0 °F 27% 30.14 in 10.0 mi NNW 10.4 mph - N/A   Clear
12:53 PM 75.0 °F 32.0 °F 21% 30.12 in 10.0 mi North 19.6 mph 24.2 mph N/A   Clear
1:53 PM 77.0 °F 34.0 °F 21% 30.10 in 10.0 mi NNE 16.1 mph 20.7 mph N/A   Clear
2:53 PM 75.9 °F 37.0 °F 24% 30.09 in 10.0 mi NNE 13.8 mph 21.9 mph N/A   Clear
3:53 PM 75.0 °F 37.9 °F 26% 30.10 in 10.0 mi NNE 13.8 mph - N/A   Clear
4:53 PM 72.0 °F 39.0 °F 30% 30.12 in 10.0 mi NNE 11.5 mph - N/A   Clear
5:53 PM 63.0 °F 39.9 °F 43% 30.13 in 10.0 mi NNE 6.9 mph - N/A   Clear
6:53 PM 57.9 °F 41.0 °F 53% 30.16 in 10.0 mi NNE 5.8 mph - N/A   Clear
7:53 PM 55.9 °F 39.9 °F 55% 30.17 in 10.0 mi NNE 6.9 mph - N/A   Clear
8:53 PM 54.0 °F 39.9 °F 59% 30.19 in 10.0 mi NE 6.9 mph - N/A   Clear
9:53 PM 51.1 °F 39.9 °F 66% 30.20 in 10.0 mi NE 5.8 mph - N/A   Clear
10:53 PM 48.9 °F 39.0 °F 69% 30.21 in 10.0 mi NE 8.1 mph - N/A   Clear
11:53 PM 48.9 °F 36.0 °F 61% 30.19 in 10.0 mi NNE 6.9 mph - N/A   Clear